• In Belgium
  • List of Countries
  • For 7 days
  • Water Temperature
  • Satellite Maps
  • Weather Map
  • Weather Widgets
  • user-avatar
    Login

    Hourly Weather Brecht

    Today, 16 July, Monday

    Time Temperature Precipitation Wind Pressure Humidity
    00:00 +20°C° 0 mm 3 mps 758 mmHg 55%
    01:00 +19°C° 0 mm 2 mps 758 mmHg 57%
    02:00 +18°C° 0 mm 2 mps 758 mmHg 59%
    03:00 +18°C° 0 mm 2 mps 758 mmHg 61%
    04:00 +19°C° 0 mm 2 mps 758 mmHg 60%
    05:00 +20°C° 0 mm 2 mps 758 mmHg 58%
    06:00 +21°C° 0 mm 2 mps 758 mmHg 54%
    07:00 +24°C° 0 mm 2 mps 758 mmHg 48%
    08:00 +26°C° 0 mm 1 mps 758 mmHg 43%
    09:00 +29°C° 0 mm 1 mps 758 mmHg 37%
    10:00 +29°C° 0 mm 2 mps 758 mmHg 36%
    11:00 +30°C° 0 mm 2 mps 757 mmHg 34%
    12:00 +31°C° 0 mm 2 mps 757 mmHg 32%
    13:00 +30°C° 0 mm 2 mps 757 mmHg 33%
    14:00 +30°C° 0 mm 2 mps 757 mmHg 34%
    15:00 +29°C° 0 mm 2 mps 757 mmHg 34%
    16:00 +29°C° 0 mm 2 mps 757 mmHg 36%
    17:00 +29°C° 0 mm 2 mps 757 mmHg 37%
    18:00 +29°C° 0 mm 1 mps 757 mmHg 39%
    19:00 +26°C° 0 mm 1 mps 757 mmHg 43%
    20:00 +24°C° 0 mm 1 mps 757 mmHg 48%
    21:00 +22°C° 0 mm 1 mps 757 mmHg 52%
    22:00 +21°C° 0 mm 2 mps 758 mmHg 55%
    23:00 +20°C° 0 mm 2 mps 758 mmHg 58%

    Tomorrow, 17 July, Tuesday

    Time Temperature Precipitation Wind Pressure Humidity
    00:00 +20°C° 0 mm 2 mps 758 mmHg 61%
    01:00 +19°C° 0 mm 2 mps 758 mmHg 64%
    02:00 +18°C° 0 mm 2 mps 758 mmHg 67%
    03:00 +17°C° 0 mm 3 mps 758 mmHg 71%
    04:00 +18°C° 0 mm 3 mps 758 mmHg 70%
    05:00 +19°C° 0 mm 3 mps 758 mmHg 68%
    06:00 +19°C° 0 mm 3 mps 758 mmHg 67%
    07:00 +21°C° 0 mm 4 mps 758 mmHg 62%
    08:00 +23°C° 0 mm 4 mps 758 mmHg 57%
    09:00 +26°C° 0 mm 4 mps 759 mmHg 52%
    10:00 +26°C° 0.2 mm 5 mps 758 mmHg 52%
    11:00 +27°C° 0.2 mm 5 mps 758 mmHg 52%
    12:00 +27°C° 0.2 mm 5 mps 758 mmHg 52%
    13:00 +27°C° 0.7 mm 5 mps 758 mmHg 53%
    14:00 +26°C° 0.7 mm 5 mps 758 mmHg 55%
    15:00 +26°C° 0.7 mm 5 mps 759 mmHg 56%
    16:00 +25°C° 0.2 mm 4 mps 759 mmHg 56%
    17:00 +23°C° 0.2 mm 4 mps 759 mmHg 56%
    18:00 +23°C° 0.2 mm 4 mps 759 mmHg 57%
    19:00 +21°C° 0 mm 3 mps 759 mmHg 63%
    20:00 +19°C° 0 mm 3 mps 760 mmHg 70%
    21:00 +17°C° 0 mm 2 mps 760 mmHg 76%
    22:00 +17°C° 0 mm 2 mps 760 mmHg 79%
    23:00 +16°C° 0 mm 2 mps 760 mmHg 82%

    Day after tomorrow, 18 July, Wednesday

    Time Temperature Precipitation Wind Pressure Humidity
    00:00 +15°C° 0 mm 2 mps 760 mmHg 85%
    01:00 +15°C° 0 mm 2 mps 760 mmHg 86%
    02:00 +15°C° 0 mm 2 mps 760 mmHg 88%
    03:00 +14°C° 0 mm 2 mps 760 mmHg 89%
    04:00 +15°C° 0 mm 2 mps 760 mmHg 85%
    05:00 +16°C° 0 mm 2 mps 761 mmHg 82%
    06:00 +17°C° 0 mm 3 mps 761 mmHg 78%
    07:00 +19°C° 0 mm 2 mps 761 mmHg 70%
    08:00 +21°C° 0 mm 2 mps 761 mmHg 62%
    09:00 +24°C° 0 mm 2 mps 761 mmHg 55%
    10:00 +25°C° 0 mm 2 mps 761 mmHg 51%
    11:00 +26°C° 0 mm 2 mps 761 mmHg 48%
    12:00 +27°C° 0 mm 2 mps 761 mmHg 44%
    13:00 +26°C° 0 mm 2 mps 761 mmHg 45%
    14:00 +26°C° 0 mm 2 mps 761 mmHg 45%
    15:00 +26°C° 0 mm 2 mps 761 mmHg 46%
    16:00 +26°C° 0 mm 2 mps 761 mmHg 48%
    17:00 +25°C° 0 mm 2 mps 761 mmHg 50%
    18:00 +24°C° 0 mm 2 mps 761 mmHg 52%
    19:00 +23°C° 0 mm 2 mps 761 mmHg 55%
    20:00 +21°C° 0 mm 2 mps 761 mmHg 58%
    21:00 +20°C° 0 mm 2 mps 762 mmHg 61%
    22:00 +20°C° 0 mm 2 mps 762 mmHg 62%
    23:00 +20°C° 0 mm 2 mps 762 mmHg 62%

    19 July, Thursday

    Time Temperature Precipitation Wind Pressure Humidity
    00:00 +20°C° 0 mm 2 mps 762 mmHg 62%
    01:00 +19°C° 0 mm 2 mps 762 mmHg 64%
    02:00 +19°C° 0 mm 2 mps 761 mmHg 66%
    03:00 +20°C° 0 mm 1 mps 761 mmHg 67%
    04:00 +20°C° 0 mm 1 mps 761 mmHg 67%
    05:00 +20°C° 0 mm 1 mps 761 mmHg 66%
    06:00 +21°C° 0 mm 1 mps 761 mmHg 65%
    07:00 +22°C° 0 mm 1 mps 761 mmHg 61%
    08:00 +23°C° 0 mm 1 mps 761 mmHg 57%
    09:00 +24°C° 0 mm 2 mps 761 mmHg 54%
    10:00 +25°C° 0 mm 1 mps 761 mmHg 49%
    11:00 +26°C° 0 mm 1 mps 761 mmHg 45%
    12:00 +27°C° 0 mm 1 mps 761 mmHg 40%
    13:00 +27°C° 0 mm 1 mps 761 mmHg 41%
    14:00 +27°C° 0 mm 2 mps 760 mmHg 41%
    15:00 +27°C° 0 mm 2 mps 760 mmHg 41%
    16:00 +26°C° 0 mm 2 mps 760 mmHg 43%
    17:00 +26°C° 0 mm 2 mps 760 mmHg 45%
    18:00 +25°C° 0 mm 2 mps 760 mmHg 47%
    19:00 +24°C° 0 mm 3 mps 760 mmHg 50%
    20:00 +21°C° 0 mm 3 mps 760 mmHg 53%
    21:00 +20°C° 0 mm 3 mps 760 mmHg 56%
    22:00 +19°C° 0 mm 3 mps 760 mmHg 60%
    23:00 +18°C° 0 mm 2 mps 760 mmHg 63%

    20 July, Friday

    Time Temperature Precipitation Wind Pressure Humidity
    00:00 +17°C° 0 mm 2 mps 760 mmHg 66%
    01:00 +17°C° 0 mm 2 mps 759 mmHg 69%
    02:00 +17°C° 0 mm 2 mps 759 mmHg 72%
    03:00 +16°C° 0 mm 2 mps 759 mmHg 75%
    04:00 +17°C° 0 mm 2 mps 759 mmHg 72%
    05:00 +18°C° 0 mm 2 mps 758 mmHg 70%
    06:00 +19°C° 0 mm 2 mps 758 mmHg 67%
    07:00 +21°C° 0 mm 2 mps 758 mmHg 60%
    08:00 +24°C° 0 mm 2 mps 758 mmHg 54%
    09:00 +26°C° 0 mm 3 mps 758 mmHg 47%
    10:00 +27°C° 0 mm 2 mps 758 mmHg 44%
    11:00 +28°C° 0 mm 2 mps 758 mmHg 42%
    12:00 +29°C° 0 mm 2 mps 757 mmHg 39%
    13:00 +28°C° 0 mm 2 mps 757 mmHg 40%
    14:00 +28°C° 0 mm 3 mps 757 mmHg 41%
    15:00 +28°C° 0 mm 3 mps 757 mmHg 42%
    16:00 +27°C° 0 mm 3 mps 757 mmHg 44%
    17:00 +26°C° 0 mm 3 mps 757 mmHg 46%
    18:00 +25°C° 0 mm 3 mps 757 mmHg 49%
    19:00 +24°C° 0 mm 3 mps 757 mmHg 53%
    20:00 +21°C° 0 mm 3 mps 757 mmHg 57%
    21:00 +20°C° 0 mm 3 mps 757 mmHg 62%
    22:00 +19°C° 0 mm 3 mps 757 mmHg 65%
    23:00 +19°C° 0 mm 3 mps 757 mmHg 69%

    21 July, Saturday

    Time Temperature Precipitation Wind Pressure Humidity
    00:00 +18°C° 0 mm 2 mps 757 mmHg 73%
    01:00 +17°C° 0 mm 2 mps 757 mmHg 76%
    02:00 +17°C° 0 mm 2 mps 757 mmHg 80%
    03:00 +16°C° 0 mm 2 mps 757 mmHg 83%
    04:00 +17°C° 0 mm 2 mps 757 mmHg 80%
    05:00 +18°C° 0 mm 2 mps 757 mmHg 77%
    06:00 +18°C° 0 mm 2 mps 757 mmHg 73%
    07:00 +19°C° 0 mm 2 mps 757 mmHg 71%
    08:00 +19°C° 0 mm 2 mps 757 mmHg 68%
    09:00 +20°C° 0 mm 2 mps 758 mmHg 65%
    10:00 +21°C° 0 mm 3 mps 758 mmHg 62%
    11:00 +22°C° 0 mm 3 mps 758 mmHg 59%
    12:00 +23°C° 0 mm 4 mps 758 mmHg 56%
    13:00 +23°C° 0.2 mm 4 mps 758 mmHg 58%
    14:00 +22°C° 0.2 mm 4 mps 758 mmHg 59%
    15:00 +22°C° 0.2 mm 4 mps 758 mmHg 61%
    16:00 +22°C° 0.2 mm 4 mps 758 mmHg 64%
    17:00 +21°C° 0.2 mm 4 mps 758 mmHg 67%
    18:00 +21°C° 0.2 mm 4 mps 758 mmHg 70%
    19:00 +19°C° 0.1 mm 3 mps 759 mmHg 76%
    20:00 +18°C° 0.1 mm 3 mps 759 mmHg 82%
    21:00 +17°C° 0.1 mm 3 mps 760 mmHg 88%
    22:00 +16°C° 0 mm 3 mps 760 mmHg 89%
    23:00 +15°C° 0 mm 2 mps 760 mmHg 90%
    Show more